Location: Brede
(50.9167°N, 0.6000°E)
Time: 03:36:36
(UTC+00:00)

Cosmos 1300 Rocket - Pass Details

Date: 08 August 2020
Orbit: 603 x 625 km, 82.5° (Epoch: 27 September)

Event Time Altitude Azimuth Distance (km) Brightness Sun altitude
Exits shadow 01:13:38 63° 206° (SSW) 676 3.4 -21.3°
Maximum altitude 01:14:17 82° 280° (W) 617 3.4 -21.3°
Drops below altitude 10° 01:18:38 10° 9° (N) 1,962 7.3 -21.0°
Sets 01:20:51 0° 10° (N) 2,871 8.5 -20.9°
